Location: Cahoon Acres
(40.8736°N, 111.8994°W)
Time: 22:14:51
(UTC+00:00)

S-56A Canister/Altair - All Passes

Search period start: 25 May 2020 00:00
Search period end: 04 June 2020 00:00
Orbit: 633 x 2499 km, 38.9° (Epoch: 24 May)

Date Brightness Start Highest point End Pass type
(mag) Time Alt. Az. Time Alt. Az. Time Alt. Az.
25 May - 12:20:31 10° SSW 12:26:23 30° SE 12:34:36 10° E daylight
25 May - 14:22:04 10° WSW 14:30:04 70° SSE 14:42:17 10° E daylight
25 May - 16:25:36 10° W 16:35:36 81° S 16:49:54 10° E daylight
25 May - 18:30:00 10° W 18:41:43 60° SSW 18:56:24 10° SE daylight
25 May - 20:36:02 10° W 20:47:10 30° SW 20:59:14 10° SSE daylight
26 May - 11:48:36 10° S 11:53:47 25° SE 12:00:43 10° E daylight
26 May - 13:49:39 10° WSW 13:57:04 65° SSE 14:08:28 10° E daylight
26 May - 15:52:57 10° W 16:02:17 81° S 16:16:04 10° E daylight
26 May - 17:57:05 10° W 18:08:16 63° SSW 18:22:52 10° SE daylight
26 May - 20:02:38 10° W 20:13:49 34° SW 20:26:24 10° SSE daylight
27 May - 11:16:52 10° S 11:21:14 20° SE 11:26:48 10° E visible
27 May - 13:17:17 10° SW 13:24:09 60° SSE 13:34:42 10° E daylight
27 May - 15:20:20 10° W 15:29:03 81° S 15:42:12 10° E daylight
27 May - 17:24:16 10° W 17:34:51 66° SSW 17:49:16 10° ESE daylight
27 May - 19:29:24 10° W 19:40:27 37° SW 19:53:25 10° SSE daylight
27 May - 21:41:20 10° WSW 21:44:59 11° SW 21:48:41 10° SW daylight
28 May - 10:45:24 10° SSE 10:48:45 15° SE 10:52:43 10° E visible
28 May - 12:45:00 10° SW 12:51:21 53° SSE 13:00:59 10° E daylight
28 May - 14:47:48 10° W 14:55:54 81° S 15:08:21 10° E daylight
28 May - 16:51:31 10° W 17:01:29 69° SSW 17:15:35 10° ESE daylight
28 May - 18:56:17 10° W 19:07:05 39° SW 19:20:17 10° SSE daylight
28 May - 21:05:56 10° WSW 21:11:49 14° SW 21:17:59 10° SSW daylight
29 May - 10:14:42 10° SE 10:16:17 11° SE 10:17:59 10° ESE visible
29 May - 12:12:44 10° SW 12:18:37 47° SSE 12:27:20 10° E daylight
29 May - 14:15:18 10° W 14:22:50 79° S 14:34:32 10° E daylight
29 May - 16:18:51 10° W 16:28:12 71° SSW 16:41:50 10° ESE daylight
29 May - 18:23:17 10° W 18:33:45 42° SSW 18:47:03 10° SSE daylight
29 May - 20:31:32 10° WSW 20:38:37 16° SW 20:46:17 10° SSW daylight
30 May - 11:40:34 10° SW 11:45:57 40° SSE 11:53:44 10° E daylight
30 May - 13:42:51 10° WSW 13:49:51 77° S 14:00:46 10° E daylight
30 May - 15:46:15 10° W 15:54:59 73° SSW 16:08:05 10° ESE daylight
30 May - 17:50:24 10° W 18:00:26 45° SSW 18:13:42 10° SE daylight
30 May - 19:57:36 10° W 20:05:25 18° SW 20:14:07 10° S daylight
31 May - 11:08:27 10° SSW 11:13:22 34° SE 11:20:12 10° E visible
31 May - 13:10:27 10° WSW 13:16:57 74° S 13:27:03 10° E daylight
31 May - 15:13:41 10° W 15:21:50 75° S 15:34:18 10° ESE daylight
31 May - 17:17:36 10° W 17:27:10 48° SSW 17:40:16 10° SE daylight
31 May - 19:24:00 10° W 19:32:12 21° SW 19:41:39 10° S daylight
01 Jun - 10:36:25 10° SSW 10:40:50 28° SE 10:46:41 10° E visible
01 Jun - 12:38:04 10° WSW 12:44:07 70° SSE 12:53:26 10° E daylight
01 Jun - 14:41:11 10° W 14:48:46 76° S 15:00:32 10° ESE daylight
01 Jun - 16:44:53 10° W 16:53:55 51° SSW 17:06:46 10° SE daylight
01 Jun - 18:50:38 10° W 18:59:00 23° SW 19:08:58 10° S daylight
02 Jun - 10:04:28 10° SSW 10:08:22 22° SE 10:13:13 10° E visible
02 Jun - 12:05:44 10° WSW 12:11:23 65° SSE 12:19:53 10° E daylight
02 Jun - 14:08:42 10° W 14:15:46 77° S 14:26:47 10° ESE daylight
02 Jun - 16:12:13 10° W 16:20:46 53° SSW 16:33:12 10° SE daylight
02 Jun - 18:17:27 10° W 18:25:48 25° SW 18:36:05 10° S daylight
03 Jun - 09:32:39 10° S 09:35:54 18° SE 09:39:42 10° E visible
03 Jun - 11:33:25 10° WSW 11:38:42 59° SSE 11:46:25 10° E daylight
03 Jun - 13:36:16 10° W 13:42:51 78° S 13:53:05 10° E daylight
03 Jun - 15:39:38 10° W 15:47:40 56° SSW 15:59:36 10° SE daylight
03 Jun - 17:44:25 10° W 17:52:38 27° SW 18:03:06 10° SSE daylight
